Hailey, ID

3:49 AM MDT on June 28, 2017 (GMT -0600)
Friedman Memorial

Weather History for KSUN - October, 2013

Change the Weather History Date:

Monday, October 28, 2013

  Actual Average Record
Temperature  
Mean Temperature 42 °F -  
Max Temperature 51 °F 49 °F 71 °F (2008)
Min Temperature 33 °F 27 °F 19 °F (1996)
Degree Days  
Heating Degree Days 23    
Moisture  
Dew Point 35 °F    
Average Humidity 66    
Maximum Humidity 100    
Minimum Humidity 44    
Precipitation  
Precipitation 0.00 in - - ()
Sea Level Pressure  
Sea Level Pressure 29.62 in    
Wind  
Wind Speed 13 mph (East)    
Max Wind Speed 24 mph    
Max Gust Speed 40 mph    
Visibility 9 miles    
Events Rain , Snow    
Averages and records for this station are not official NWS values.
T = Trace of Precipitation, MM = Missing Value Source: NWS Daily Summary

Daily Weather History Graph

Daily Weather History Graph

Search for Another Location

Airport or City:

Trip Planner

Search our weather history database for the weather conditions in past years. The results will help you decide how hot, cold, wet, or windy it might be!

Date:

Astronomy

Oct. 28, 2013 Rise Set
Actual Time 8:07 AM MDT 6:33 PM MDT
Civil Twilight 7:38 AM MDT 7:02 PM MDT
Nautical Twilight 7:04 AM MDT 7:36 PM MDT
Astronomical Twilight 6:31 AM MDT 8:09 PM MDT
Moon 1:54 AM MDT 3:26 PM MDT
Length of Visible Light 11h 24m
Length of Day
10h 25m
Waning Crescent, 33% of the Moon is Illuminated
Oct 28
Waning Crescent
Nov 3
New
Nov 9
First Quarter
Nov 17
Full
Nov 25
Last Quarter

Hourly Weather History & Observations

Time (MDT) Temp. Windchill Dew Point Humidity Pressure Visibility Wind Dir Wind Speed Gust Speed Precip Events Conditions
12:15 AM 50.0 °F - 33.8 °F 54% 29.64 in 10.0 mi ESE 8.1 mph 20.7 mph N/A   Overcast
12:35 AM 50.0 °F - 33.8 °F 54% 29.64 in 10.0 mi ESE 19.6 mph 28.8 mph N/A   Mostly Cloudy
12:55 AM 50.0 °F - 33.8 °F 54% 29.64 in 10.0 mi East 12.7 mph 27.6 mph N/A   Overcast
1:15 AM 50.0 °F - 33.8 °F 54% 29.63 in 10.0 mi East 8.1 mph - N/A   Overcast
1:35 AM 50.0 °F - 32.0 °F 50% 29.63 in 10.0 mi ESE 6.9 mph - N/A   Overcast
1:55 AM 50.0 °F - 33.8 °F 54% 29.63 in 10.0 mi Calm Calm - N/A   Overcast
2:15 AM 46.4 °F - 35.6 °F 66% 29.63 in 10.0 mi Calm Calm - N/A   Overcast
2:35 AM 50.0 °F - 33.8 °F 54% 29.62 in 10.0 mi ENE 16.1 mph 23.0 mph N/A   Overcast
2:55 AM 50.0 °F - 32.0 °F 50% 29.60 in 10.0 mi ENE 17.3 mph 26.5 mph N/A   Mostly Cloudy
3:15 AM 51.8 °F - 32.0 °F 47% 29.60 in 10.0 mi East 13.8 mph 26.5 mph N/A   Overcast
3:35 AM 51.8 °F - 30.2 °F 44% 29.58 in 10.0 mi East 16.1 mph 38.0 mph N/A   Overcast
3:55 AM 51.8 °F - 30.2 °F 44% 29.58 in 10.0 mi East 13.8 mph 23.0 mph N/A   Overcast
4:15 AM 51.8 °F - 32.0 °F 47% 29.57 in 10.0 mi East 17.3 mph 25.3 mph N/A   Overcast
4:35 AM 51.8 °F - 32.0 °F 47% 29.57 in 10.0 mi East 17.3 mph 35.7 mph N/A   Overcast
4:55 AM 51.8 °F - 32.0 °F 47% 29.55 in 10.0 mi East 24.2 mph 31.1 mph N/A   Overcast
5:15 AM 51.8 °F - 32.0 °F 47% 29.55 in 10.0 mi East 24.2 mph 34.5 mph N/A   Overcast
5:35 AM 51.8 °F - 32.0 °F 47% 29.54 in 10.0 mi East 23.0 mph 40.3 mph N/A   Mostly Cloudy
5:55 AM 51.8 °F - 32.0 °F 47% 29.54 in 10.0 mi East 23.0 mph 35.7 mph N/A   Mostly Cloudy
6:15 AM 51.8 °F - 32.0 °F 47% 29.55 in 10.0 mi East 19.6 mph 29.9 mph N/A   Mostly Cloudy
6:35 AM 51.8 °F - 33.8 °F 50% 29.55 in 10.0 mi East 21.9 mph 34.5 mph N/A   Mostly Cloudy
6:50 AM 51.8 °F - 33.8 °F 50% 29.55 in 10.0 mi East 19.6 mph 31.1 mph N/A   Mostly Cloudy
6:55 AM 50.0 °F - 33.8 °F 54% 29.55 in 10.0 mi East 19.6 mph 26.5 mph N/A   Scattered Clouds
7:47 AM 51.8 °F - 33.8 °F 50% 29.54 in 10.0 mi East 17.3 mph 29.9 mph N/A   Mostly Cloudy
8:55 AM 51.8 °F - 33.8 °F 50% 29.56 in 10.0 mi ENE 23.0 mph 33.4 mph N/A   Mostly Cloudy
9:50 AM 50.0 °F - 35.6 °F 58% 29.57 in 10.0 mi East 23.0 mph 34.5 mph N/A   Overcast
10:48 AM 48.2 °F - 37.4 °F 66% 29.57 in 10.0 mi East 17.3 mph 26.5 mph N/A   Overcast
11:47 AM 46.4 °F 41.1 °F 39.2 °F 76% 29.58 in 6.0 mi East 11.5 mph 23.0 mph N/A Rain Light Rain
12:47 PM 48.2 °F - 39.2 °F 71% 29.56 in 7.0 mi ENE 21.9 mph 29.9 mph N/A Rain Light Rain
1:47 PM 46.4 °F 39.5 °F 39.2 °F 76% 29.56 in 5.0 mi East 17.3 mph - N/A Rain Light Rain
2:10 PM 42.8 °F 38.6 °F 39.2 °F 87% 29.58 in 2.0 mi SSE 6.9 mph - N/A Rain Rain
2:47 PM 41.0 °F 34.3 °F 39.2 °F 93% 29.59 in 6.0 mi ESE 11.5 mph - N/A Rain Light Rain
3:47 PM 42.8 °F 36.6 °F 39.2 °F 87% 29.58 in 10.0 mi WNW 11.5 mph - N/A   Overcast
4:47 PM 42.8 °F 36.6 °F 39.2 °F 87% 29.59 in 10.0 mi WNW 11.5 mph - N/A   Overcast
5:50 PM 42.8 °F 37.0 °F 39.2 °F 87% 29.95 in 10.0 mi WNW 10.4 mph - N/A   Overcast
6:50 PM 42.8 °F 38.6 °F 37.4 °F 81% 29.60 in 10.0 mi NW 6.9 mph - N/A   Overcast
7:47 PM 42.8 °F 38.0 °F 37.4 °F 81% 29.65 in 10.0 mi SE 8.1 mph 16.1 mph N/A Rain Light Rain
8:35 PM 37.4 °F 28.9 °F 35.6 °F 93% 29.69 in 4.0 mi East 13.8 mph - N/A Rain Rain
8:53 PM 33.8 °F 27.0 °F 33.8 °F 100% 29.71 in 10.0 mi East 8.1 mph - N/A Snow Light Snow
8:56 PM 33.8 °F 27.0 °F 33.8 °F 100% 29.71 in 1.5 mi East 8.1 mph - N/A Snow Light Snow
9:50 PM 33.8 °F - 33.8 °F 100% 29.74 in 3.0 mi Calm Calm - N/A Snow Light Snow
11:15 PM 33.8 °F 29.6 °F 33.8 °F 100% 29.77 in 7.0 mi NW 4.6 mph - N/A   Overcast
11:35 PM 33.8 °F 27.7 °F 33.8 °F 100% 29.78 in 10.0 mi NW 6.9 mph - N/A   Overcast
11:55 PM 33.8 °F 29.6 °F 33.8 °F 100% 29.79 in 10.0 mi NW 4.6 mph - N/A   Overcast